GFSNGP_con_lsi_021.txt.gz
Lid_Strength_Index
15 15 14 15 16 16 16 16 17 16 16 14 12 11 11 11 11 11 11 12 13 12 13 14 14 14 14 14 13 14 14 14 14 14 14 14 15 15 15 15 15 15 15 15
18 15 14 15 14 14 14 14 15 14 14 11 12 12 13 12 12 12 11 12 13 13 13 13 13 13 13 14 13 13 14 14 14 14 14 14 14 14 14 14 14 14 15 15
17 17 17 19 19 16 15 14 14 16 13 16 14 13 13 13 13 13 13 12 12 13 13 13 13 12 13 13 13 15 15 16 16 14 14 14 15 15 15 16 15 16 16 16
20 23 22 17 18 16 16 16 16 16 17 16 13 13 12 13 13 13 13 13 13 13 13 13 13 13 13 13 14 14 15 16 15 14 16 16 16 17 17 17 17 17 17 17
20 24 20 18 17 17 17 18 16 15 15 14 14 16 16 14 14 14 14 13 12 12 13 13 13 13 13 14 13 14 14 14 15 16 18 17 19 19 18 18 19 19 18 18
24 24 24 18 16 15 15 20 18 16 16 16 15 19 17 14 13 13 12 12 12 12 13 13 14 13 13 14 15 15 14 14 15 16 20 20 19 19 19 20 19 19 19 19
19 19 22 18 16 14 21 18 18 16 15 15 17 14 13 13 13 12 12 12 12 12 13 13 14 14 14 15 16 15 16 17 17 18 20 20 21 20 21 21 20 22 21 21
22 26 24 15 15 17 14 14 14 14 13 14 13 12 13 12 12 12 12 11 11 12 13 14 14 14 15 16 15 17 18 18 19 23 22 21 26 23 24 23 23 23 23 22
18 19 14 13 13 11 12 13 12 12 12 12 12 13 12 13 13 12 11 11 11 12 14 14 16 16 16 16 17 18 21 22 25 24 22 22 26 23 23 24 24 23 22 22
18 16 15 13 11 12 11 11 11 11 11 12 12 12 12 12 12 12 12 12 14 15 15 17 18 16 18 18 18 23 23 23 23 24 24 24 21 21 22 22 22 22 22 21
18 15 14 12 11 11 11 11 11 11 11 11 11 11 12 11 11 11 11 14 14 14 15 17 18 18 19 19 21 23 23 22 23 24 25 22 21 21 20 19 19 19 17 16
18 13 12 11 11 10 11 11 11 11 11 11 11 10 10 10 10 11 12 15 16 17 17 19 20 20 21 23 24 24 22 21 22 22 22 21 21 21 16 14 12 12 12 13
13 11 10 9 9 10 10 10 9 10 10 10 10 10 11 10 13 14 16 16 17 18 19 21 22 21 21 22 25 25 25 23 23 21 22 22 22 23 23 19 14 14 14 14
10 10 11 10 10 10 10 9 10 11 11 10 10 14 14 14 17 17 18 18 19 20 22 23 24 23 21 24 24 24 27 24 25 24 24 24 24 23 23 23 23 22 18 16
10 9 8 9 10 10 11 12 13 12 12 14 16 15 17 17 18 17 19 21 21 24 26 25 26 22 25 28 26 26 27 25 25 25 25 23 23 22 22 22 23 23 23 20
8 11 10 11 9 11 13 15 13 11 13 17 17 17 17 18 19 22 24 25 25 25 25 25 25 22 25 27 26 29 28 25 24 26 25 26 24 24 23 23 24 25 24 24
14 14 19 15 12 12 13 11 11 12 16 16 17 19 22 23 26 29 30 31 29 28 28 28 25 26 29 27 27 26 28 29 25 27 29 28 27 26 24 23 25 26 25 23
9 8 12 12 12 12 14 15 16 18 20 20 21 23 25 27 27 29 31 34 33 30 28 26 27 29 31 32 29 28 28 28 32 30 28 27 27 25 24 25 26 26 25 24
13 11 16 16 18 18 19 20 22 22 23 23 24 26 27 29 30 33 36 35 34 34 26 31 23 25 31 29 28 28 28 29 30 30 28 27 27 26 26 27 28 28 27 26
21 20 20 22 23 24 24 25 25 27 29 28 29 30 31 34 37 36 38 34 31 27 30 28 28 28 28 28 22 27 29 29 28 28 28 28 26 25 26 27 28 29 30 30
24 23 24 25 26 27 26 27 27 28 31 29 28 32 33 36 38 36 35 33 27 31 31 28 30 27 28 28 27 30 32 29 28 28 29 27 26 27 28 32 31 31 30 32
29 27 27 26 27 30 31 30 30 30 30 31 34 34 34 33 34 32 31 28 27 26 28 29 27 25 23 21 21 23 24 26 27 28 27 26 26 28 29 31 31 31 31 31
29 28 26 28 27 30 33 34 34 32 31 31 30 33 30 27 27 30 29 30 31 28 27 26 23 20 17 19 22 23 23 24 24 24 24 25 27 30 31 30 32 32 33 32
28 28 30 30 30 29 29 33 35 35 34 33 31 29 28 30 30 30 27 26 25 24 25 23 20 16 17 22 22 23 24 24 23 23 25 25 29 31 32 32 33 32 33 32
28 30 30 29 28 31 32 35 33 32 31 29 29 32 32 28 28 29 29 24 22 22 23 20 16 16 21 22 22 23 23 24 24 25 27 29 30 31 32 34 34 33 34 33
33 31 32 32 30 30 30 30 30 34 32 30 32 33 33 32 27 24 24 25 25 22 22 20 20 20 20 21 22 22 23 23 24 25 27 28 29 30 31 31 32 32 32 33
30 29 31 31 32 32 32 28 27 27 29 35 33 32 32 30 28 24 26 26 24 22 20 20 20 20 21 21 22 23 23 24 25 26 27 28 29 30 31 31 32 32 32 32

GFSNGP_con_lsi_024.txt.gz
Lid_Strength_Index
16 17 17 16 16 17 17 15 15 14 15 14 12 12 12 13 13 13 13 13 13 13 13 13 14 14 14 14 13 13 14 14 14 14 14 15 15 16 16 16 16 16 16 16
20 16 16 17 16 17 15 15 15 15 15 12 12 13 14 12 12 13 12 12 11 12 12 13 13 13 13 14 14 13 14 14 14 15 15 16 16 16 16 16 16 16 16 16
18 19 18 19 17 16 15 15 13 15 13 16 15 14 14 14 14 13 12 12 11 12 13 12 13 12 13 13 14 14 15 16 16 16 16 17 16 16 16 16 16 16 16 17
21 20 22 18 20 17 14 14 15 17 18 17 16 15 14 14 14 13 13 13 13 12 13 13 13 13 13 13 14 15 16 17 17 17 17 17 17 17 17 17 17 18 18 18
20 22 19 18 19 19 18 18 18 15 15 15 15 17 17 14 14 13 13 13 13 13 13 14 13 13 14 14 14 15 16 16 16 17 18 18 19 19 18 19 19 19 18 19
23 23 23 20 18 17 16 21 19 16 16 17 16 19 17 14 13 13 13 13 12 12 12 13 13 14 15 15 16 16 15 15 16 17 20 20 19 20 20 21 19 18 19 19
19 19 19 19 18 16 21 18 19 18 17 17 17 15 14 13 14 12 12 12 12 13 13 13 14 15 15 16 16 16 16 16 17 17 20 20 21 21 22 23 20 22 21 20
22 21 21 17 16 17 15 15 14 15 14 14 14 13 13 13 13 13 12 12 11 12 13 14 15 15 15 15 16 17 17 18 18 21 20 20 26 25 25 26 25 24 24 22
19 19 16 15 14 13 13 14 14 14 13 13 13 13 13 13 13 13 12 12 12 13 13 14 16 15 15 16 17 18 20 20 21 21 20 20 24 23 25 27 26 23 22 21
19 18 16 14 13 12 12 12 12 12 12 12 12 12 13 13 13 13 13 13 14 16 15 15 17 16 17 17 18 22 24 21 20 21 21 21 20 20 25 25 23 22 22 21
19 16 15 13 12 11 11 11 12 12 12 12 12 12 13 13 13 12 12 13 15 14 14 14 17 18 19 19 20 22 23 20 20 20 21 21 21 21 21 20 20 21 20 18
18 13 13 12 11 11 11 11 11 12 13 13 12 12 12 12 11 12 12 15 15 15 16 18 18 19 21 21 21 22 21 20 20 20 20 20 21 21 16 13 12 11 10 11
13 12 12 11 11 11 11 11 11 12 12 12 12 12 12 12 13 13 16 16 16 16 18 19 20 20 22 24 24 24 23 20 20 20 21 22 22 22 23 19 14 13 12 12
11 12 13 12 11 11 11 11 12 13 13 12 11 14 14 14 17 17 16 17 18 19 21 22 23 24 24 25 26 25 22 20 22 21 22 24 23 23 23 24 24 22 17 15
12 11 9 10 11 11 12 13 14 13 13 15 16 15 16 16 17 17 19 21 21 23 25 24 26 24 25 25 24 23 22 22 22 23 23 24 23 23 23 23 23 24 22 19
12 12 12 12 10 12 13 16 13 13 14 14 16 17 16 18 20 22 24 25 23 24 26 26 25 25 27 27 26 26 24 22 22 25 26 26 24 24 24 24 25 25 24 23
15 15 19 17 12 12 14 12 12 12 16 16 17 19 21 23 26 28 31 32 31 29 30 29 26 28 30 28 27 24 25 26 24 27 28 27 27 26 25 26 25 26 24 22
10 9 13 13 13 13 14 14 15 18 19 20 21 22 24 25 25 29 33 35 33 30 31 29 29 30 31 31 30 27 27 27 30 29 28 27 27 26 26 26 26 24 23 23
14 12 15 15 18 18 20 21 22 22 22 23 22 23 25 27 28 34 37 34 33 33 28 33 23 24 31 29 28 26 25 25 25 28 28 28 28 29 28 27 26 24 25 25
22 21 21 23 24 24 24 25 25 26 27 26 26 27 29 34 35 34 36 31 32 29 32 32 31 28 27 28 22 24 26 25 25 26 29 28 28 28 26 24 24 25 28 29
25 24 24 25 27 27 27 26 26 27 29 27 25 26 29 36 36 33 33 31 28 33 33 29 29 28 29 27 27 32 32 29 28 28 28 26 26 26 24 24 25 27 28 30
30 28 27 27 28 30 31 29 28 28 29 29 30 30 30 31 35 35 33 30 30 26 27 28 30 29 28 23 25 27 25 25 24 24 26 26 26 24 23 24 26 27 29 30
30 30 28 28 28 31 32 30 29 29 29 28 28 28 28 28 29 28 28 30 31 30 28 27 26 22 19 20 22 21 22 22 23 23 23 24 23 24 24 25 27 29 30 31
33 31 32 31 30 29 28 29 29 29 29 30 33 32 30 30 30 31 29 27 27 26 26 25 23 17 17 24 23 22 22 22 22 22 22 22 23 24 26 28 29 29 30 32
29 30 28 27 28 29 30 32 30 33 34 34 34 33 32 29 27 30 32 27 24 23 24 23 17 18 25 25 23 22 22 22 22 23 23 24 24 26 28 30 31 30 31 32
35 35 36 34 33 34 34 33 32 34 33 32 32 33 33 33 30 28 28 26 26 24 26 27 26 25 23 22 21 22 21 22 22 22 23 24 25 27 28 29 29 29 30 32
32 32 34 33 33 35 35 33 32 32 35 36 34 34 33 32 31 27 26 26 26 26 27 27 24 22 22 21 22 22 23 23 23 23 24 25 26 28 28 28 29 30 31 31

GFSNGP_con_lsi_027.txt.gz
Lid_Strength_Index
17 17 16 16 17 17 17 15 16 15 15 15 14 13 14 14 14 14 14 14 13 13 14 14 14 13 13 13 13 13 13 13 13 12 13 13 14 14 15 15 16 16 16 16
19 17 17 18 17 17 16 15 15 15 15 13 12 14 14 14 14 14 13 13 13 13 13 13 13 13 12 12 12 12 12 12 12 13 14 14 15 15 16 16 17 17 17 17
17 20 18 18 17 17 16 16 14 17 13 15 15 14 14 14 13 13 13 13 13 12 13 12 13 12 12 12 13 13 13 14 14 14 14 15 16 16 17 17 17 17 17 16
22 20 22 19 21 16 15 15 16 16 18 15 14 15 15 15 15 15 14 13 13 12 12 12 12 13 13 13 13 13 13 14 15 15 16 17 17 17 17 17 17 17 17 17
21 20 19 20 20 18 17 17 16 14 15 16 17 18 18 16 15 14 14 13 13 12 12 13 13 13 13 14 13 14 14 14 15 16 17 17 18 18 17 17 17 18 16 17
21 21 22 21 19 18 17 20 18 14 14 19 18 21 17 16 15 14 14 13 13 13 13 13 13 13 14 14 15 14 14 14 15 16 18 18 17 18 18 19 17 17 18 18
20 20 19 19 20 18 20 18 20 18 19 18 18 16 15 15 15 14 13 13 13 13 13 12 13 14 14 15 15 14 15 16 16 17 18 18 19 18 20 20 19 21 20 19
20 21 21 18 19 19 16 18 18 18 17 16 16 15 14 14 13 14 13 13 12 13 13 13 14 14 14 14 15 16 16 17 18 20 18 19 22 21 22 22 22 22 22 20
18 18 18 16 16 15 15 15 16 16 15 15 15 15 14 14 14 13 13 13 13 13 13 13 15 14 14 15 16 17 18 20 21 21 20 20 22 21 20 21 21 21 19 19
19 19 18 16 15 15 14 14 14 14 14 14 14 14 14 14 13 13 14 14 14 15 15 14 16 15 15 16 17 19 21 20 20 21 20 21 18 19 20 21 20 20 20 20
20 19 17 15 14 12 12 13 14 14 13 13 13 14 14 14 14 14 13 14 16 14 13 13 16 17 18 17 18 20 20 20 20 20 21 19 18 18 18 18 19 22 21 19
20 16 15 13 11 11 12 12 12 13 13 13 13 13 14 14 13 13 13 15 16 15 16 15 17 18 20 20 19 20 20 20 20 20 20 19 19 18 15 13 12 11 10 10
15 13 12 11 11 12 12 12 12 12 12 13 13 13 14 14 14 13 16 16 16 14 15 19 19 19 21 22 22 22 20 20 20 19 20 20 20 20 20 18 15 13 12 10
12 12 13 12 12 12 12 11 13 14 14 13 13 16 14 14 18 17 15 16 19 20 22 21 21 22 23 24 24 25 25 21 21 21 21 21 21 21 20 21 23 21 17 14
12 12 11 12 13 13 13 14 15 14 13 15 16 15 17 17 17 17 20 21 21 23 25 23 24 25 26 25 24 26 24 23 23 23 23 22 21 21 21 22 22 22 22 19
12 13 14 14 12 15 15 17 14 13 14 14 16 17 17 19 21 23 25 26 23 23 27 26 26 27 28 27 26 28 26 23 23 24 24 23 22 23 22 22 23 23 22 22
15 16 19 17 14 13 15 13 13 12 14 16 15 19 21 23 25 28 29 31 28 28 29 28 27 30 31 29 28 27 27 27 24 25 25 26 25 23 22 23 23 23 23 21
12 12 14 13 13 14 15 14 14 16 18 20 21 22 23 23 23 27 28 29 28 27 29 30 31 32 31 31 30 29 30 29 28 27 25 24 24 23 24 24 24 23 22 21
18 15 17 16 18 18 20 21 23 23 23 23 23 25 25 26 26 28 29 28 28 26 28 32 20 30 30 31 30 29 27 26 27 27 26 25 25 25 25 26 25 25 24 23
22 23 22 24 24 25 25 26 26 27 29 26 26 27 29 30 29 30 29 27 27 27 31 31 31 32 32 31 25 27 29 29 27 27 26 25 24 24 24 24 25 24 25 25
27 26 26 26 27 28 28 29 27 27 29 27 26 28 30 33 31 29 28 27 28 32 32 30 34 31 30 29 29 33 33 30 28 27 29 27 27 24 24 24 25 24 24 24
31 30 28 28 30 31 32 31 29 29 29 29 29 29 30 35 36 33 32 29 30 28 31 31 32 30 30 26 29 30 31 30 28 25 24 24 25 24 23 22 22 23 23 24
32 32 29 30 31 34 34 32 31 30 30 29 28 27 26 26 26 25 27 30 32 31 30 29 27 24 20 23 25 26 26 25 25 24 22 23 22 22 22 22 23 23 24 26
32 32 33 34 33 30 30 33 32 32 30 29 30 29 27 27 30 32 31 29 28 28 29 28 25 17 20 27 28 28 28 27 25 24 21 21 21 21 22 23 24 24 26 27
32 32 31 29 28 29 30 31 30 31 31 32 33 34 34 31 30 31 33 31 26 25 27 24 18 19 28 30 29 28 27 26 23 22 22 22 22 23 23 24 25 27 28 28
30 30 31 31 31 30 29 29 29 34 34 33 34 35 35 35 32 30 30 28 28 26 27 27 28 28 28 27 27 25 23 22 22 22 22 23 23 24 24 25 26 27 28 28
28 27 27 28 28 29 28 28 28 30 31 33 32 35 34 34 32 28 28 28 28 28 28 30 27 26 26 25 25 23 23 23 23 23 24 24 24 25 25 26 27 27 28 29

GFSNGP_con_lsi_030.txt.gz
Lid_Strength_Index
12 13 13 13 14 14 14 13 14 13 14 12 12 12 11 10 11 11 11 11 11 11 10 10 11 11 11 12 12 12 12 12 11 10 10 10 11 11 12 12 12 13 13 14
15 14 14 15 14 14 14 13 13 13 13 10 10 10 11 11 11 12 11 11 10 10 10 11 10 10 11 11 11 11 11 11 10 10 10 11 11 12 13 13 13 14 14 14
17 15 17 18 15 14 14 13 13 15 12 12 12 12 11 11 11 11 11 10 11 11 11 10 10 10 10 10 10 11 11 10 10 10 11 11 12 13 13 14 14 14 14 14
17 18 20 15 16 12 13 12 12 13 13 12 11 11 10 10 10 10 11 11 11 10 10 10 10 11 10 10 10 10 10 10 11 11 11 12 13 13 13 13 14 14 13 14
20 19 16 20 18 15 15 14 13 12 12 14 15 14 13 13 12 10 11 11 10 10 10 11 11 11 11 11 11 11 11 10 11 11 12 13 14 13 13 13 13 13 13 14
19 19 20 16 17 16 14 17 15 12 13 16 15 14 11 13 13 12 12 11 12 12 12 11 11 11 11 11 11 11 11 11 11 11 12 13 13 14 13 13 14 14 14 14
18 19 17 15 18 17 18 15 15 13 14 16 15 12 13 13 13 12 12 12 12 12 11 11 11 12 11 11 12 10 11 11 12 12 13 13 13 13 14 14 15 15 15 14
18 19 19 17 18 17 14 16 15 15 15 15 15 15 15 14 14 14 14 13 12 12 12 11 11 12 11 12 10 12 12 13 14 14 14 14 15 15 16 16 16 16 15 14
16 16 17 16 15 15 14 14 16 14 15 14 15 15 15 15 14 13 12 12 12 12 12 11 12 11 11 10 12 14 14 15 15 16 15 15 16 16 15 15 15 14 14 14
16 17 17 16 15 15 14 14 14 14 14 14 14 14 14 14 13 13 12 12 12 12 12 11 12 12 11 12 14 15 15 16 16 17 16 16 15 15 15 14 14 14 14 14
19 18 17 15 15 14 14 14 14 15 14 13 13 13 13 13 12 12 12 12 12 12 11 11 10 12 12 13 15 15 15 15 15 15 16 15 15 14 14 13 13 13 14 13
17 16 15 14 13 13 14 13 13 14 14 14 13 13 13 12 12 12 12 12 13 12 12 11 12 12 14 15 15 15 14 15 14 14 14 14 14 14 13 12 11 10 9 9
15 13 13 13 13 12 12 12 12 12 12 12 12 12 12 12 12 12 12 12 13 12 11 11 13 14 16 17 16 15 13 13 14 15 14 14 15 15 15 13 13 12 11 10
13 13 14 14 13 12 12 11 12 13 12 12 11 12 12 12 14 13 13 12 12 13 14 15 16 16 18 18 17 17 15 17 14 14 15 15 15 15 15 16 16 15 14 14
13 12 12 12 12 12 13 13 14 13 13 14 14 13 14 14 13 13 15 18 17 18 19 19 19 20 20 20 19 18 17 16 16 16 16 17 16 17 17 17 17 17 16 15
11 12 13 13 12 13 13 15 13 12 13 12 14 14 13 14 16 19 21 20 16 15 20 20 20 22 22 21 20 20 19 20 19 17 17 18 18 18 18 18 18 18 17 16
14 14 15 14 13 12 13 12 11 11 12 14 13 15 16 19 22 23 25 24 22 22 22 20 23 24 23 22 21 19 19 19 20 19 19 19 19 19 19 19 19 18 18 16
11 10 11 10 11 11 12 13 13 13 15 15 16 18 20 20 18 23 25 25 24 24 23 24 23 24 25 24 23 21 21 20 21 21 20 20 20 20 20 19 19 19 18 17
19 17 16 15 17 16 17 17 18 19 19 19 19 21 22 22 23 25 25 23 22 21 24 24 19 23 23 24 23 22 22 21 21 21 21 22 21 21 20 20 19 19 19 19
22 21 21 22 23 23 22 23 22 24 24 23 24 25 26 27 27 26 24 23 24 23 25 24 24 23 24 25 21 21 21 21 21 20 20 21 20 20 19 20 20 20 19 19
26 24 25 25 27 27 26 25 24 25 25 24 24 26 27 28 27 26 23 21 25 26 25 25 24 22 22 22 22 21 21 21 21 21 21 21 21 20 20 20 20 20 19 19
28 27 27 27 27 28 29 27 26 26 26 27 28 28 28 28 27 26 27 22 23 25 23 22 22 23 22 23 20 20 21 21 20 21 21 21 20 20 20 20 20 19 19 19
29 28 27 28 28 29 28 28 27 26 27 27 26 24 23 22 22 21 22 24 23 24 22 21 22 21 19 19 19 19 20 20 20 20 20 20 20 20 20 19 19 19 19 19
30 29 29 29 29 26 27 28 27 27 27 26 26 25 22 23 24 24 23 25 26 24 22 21 20 17 20 19 19 19 19 20 20 20 20 21 20 20 20 20 20 19 20 21
29 28 27 27 26 27 27 27 26 26 26 26 26 26 26 25 22 23 23 23 23 22 20 21 18 18 19 20 20 20 20 20 20 20 20 20 20 20 20 20 21 21 21 22
27 27 28 28 27 26 26 24 25 26 24 25 25 25 24 25 23 23 22 23 22 22 21 20 20 20 20 20 20 20 20 20 20 20 20 20 21 21 21 21 22 22 23 23
26 25 25 25 25 25 25 24 23 24 25 24 23 24 25 24 24 23 23 21 21 21 21 21 21 21 21 21 20 20 21 21 21 21 21 21 22 22 22 22 23 23 24 24

GFSNGP_con_lsi_033.txt.gz
Lid_Strength_Index
12 11 11 12 13 14 15 14 14 13 12 10 11 11 10 10 10 11 11 11 11 11 11 11 11 12 12 12 12 12 13 13 12 12 11 11 12 11 11 12 11 11 12 12
14 12 12 13 12 12 13 13 13 12 12 8 10 10 10 10 10 11 11 11 11 11 11 10 10 11 11 11 12 12 12 12 12 12 12 12 12 12 12 12 12 13 13 13
17 13 14 17 14 13 12 12 12 14 11 11 10 11 11 11 11 11 11 11 11 11 10 10 10 10 10 10 11 12 13 13 13 12 12 12 12 12 12 12 12 13 13 13
17 16 21 14 10 11 12 11 11 11 12 11 11 11 10 9 10 11 11 10 10 10 10 10 9 9 9 10 11 12 12 12 12 12 12 12 12 12 12 12 13 13 13 13
18 18 14 13 17 14 13 13 10 11 12 14 14 13 12 10 10 10 10 10 10 9 9 10 11 11 12 12 12 12 12 12 12 12 12 12 13 13 12 13 13 13 13 13
18 19 20 14 14 13 11 16 12 12 13 15 14 14 11 12 12 11 10 11 11 11 12 12 12 13 14 14 13 12 12 11 11 11 12 12 12 13 12 12 13 13 12 12
16 18 16 14 16 13 16 15 15 12 13 15 14 12 12 13 13 12 12 13 13 13 13 13 13 14 14 13 13 11 12 12 12 12 12 12 12 12 13 14 13 14 14 13
16 17 19 16 17 15 14 15 14 13 14 14 14 15 14 14 14 14 15 14 14 14 14 13 14 13 13 13 11 12 12 13 13 13 13 13 14 14 14 14 15 15 14 14
15 15 17 16 16 15 15 14 15 14 13 13 15 16 15 15 15 15 14 14 14 14 14 13 13 13 13 12 12 13 14 14 14 14 14 14 15 15 15 15 14 13 13 13
15 17 16 16 16 15 15 14 14 14 14 14 14 15 15 15 15 14 14 14 14 14 14 14 13 13 11 12 13 14 14 15 15 16 15 15 14 14 14 13 13 13 12 12
19 18 17 15 15 14 14 14 15 14 14 14 14 15 14 14 14 14 14 14 14 14 13 12 12 12 12 13 14 14 14 15 14 15 15 15 14 13 13 12 11 12 12 12
17 16 14 14 13 13 14 14 14 14 15 15 13 14 14 14 13 13 13 13 14 13 13 12 11 12 12 13 14 14 14 14 13 13 14 13 13 14 11 10 10 10 10 11
15 13 14 14 13 12 13 13 13 14 14 14 14 13 13 13 13 13 13 13 13 12 12 12 13 13 15 16 16 16 13 13 13 14 13 13 13 13 13 12 10 10 9 9
13 13 15 14 14 13 13 13 13 14 13 13 12 13 13 13 14 13 13 13 12 13 15 15 16 17 17 17 17 17 14 16 13 14 13 13 13 13 14 14 15 14 12 11
14 14 14 14 14 14 14 14 15 14 13 14 14 13 14 14 14 13 14 17 17 17 19 19 19 21 20 19 18 17 15 15 15 14 15 15 15 15 16 16 16 16 15 14
12 13 13 13 12 13 13 14 14 13 13 13 14 14 14 14 16 19 20 19 16 15 21 21 21 22 21 20 19 19 19 19 18 16 16 17 17 17 17 17 17 17 17 16
13 13 14 14 13 12 13 12 12 12 13 14 14 15 16 18 21 22 24 22 22 22 21 21 24 24 22 21 18 18 18 19 19 18 18 18 18 18 18 18 18 18 17 16
17 15 13 13 12 11 12 13 13 15 15 16 17 17 19 20 18 23 25 24 24 25 24 24 24 24 23 22 20 19 19 19 19 20 19 19 19 18 18 19 19 19 18 17
21 20 18 18 19 17 17 17 18 19 19 19 19 20 21 22 22 24 23 23 23 22 25 23 18 22 22 23 21 20 20 20 20 20 20 20 21 20 20 20 20 19 18 18
23 22 21 22 23 23 22 22 21 22 23 23 23 24 25 26 25 24 22 25 26 24 23 23 22 22 24 23 19 20 20 20 20 20 19 20 20 20 19 20 20 20 20 19
25 24 24 24 25 26 25 23 23 24 24 23 23 25 26 26 26 24 22 22 25 25 24 23 21 21 20 21 21 20 20 20 20 20 20 20 20 20 19 19 19 19 19 19
26 26 26 26 26 27 27 26 25 25 25 26 27 26 26 26 26 26 27 22 23 23 21 21 20 22 21 21 20 20 20 20 20 20 20 20 20 19 20 19 20 20 19 18
27 26 27 28 28 27 27 26 26 25 25 25 24 23 22 21 21 21 22 23 21 23 20 20 22 21 19 20 18 19 19 20 20 20 19 19 19 19 20 20 20 20 19 19
27 27 27 26 25 25 26 26 25 26 26 26 27 26 22 22 23 22 22 24 24 22 21 20 20 18 21 19 19 19 19 19 19 19 19 20 20 20 20 20 20 20 20 19
26 25 25 25 24 25 25 24 24 24 24 24 24 24 24 23 22 22 22 22 22 21 20 20 19 19 20 20 19 20 19 19 20 20 20 20 21 21 20 21 21 21 21 21
25 25 25 25 24 23 23 22 23 23 22 23 23 23 22 23 22 22 21 22 21 21 20 20 20 20 19 19 20 20 20 20 20 20 20 21 21 21 21 21 21 21 21 21
24 23 23 23 23 23 23 22 22 23 23 22 22 22 22 22 21 22 22 20 20 20 20 20 19 20 19 19 20 20 20 20 20 20 21 21 21 22 22 21 21 21 22 22

GFSNGP_con_lsi_036.txt.gz
Lid_Strength_Index
12 12 12 15 15 14 15 14 16 15 14 12 13 14 13 12 12 12 13 13 13 13 14 15 15 15 15 15 16 15 16 17 16 16 16 16 16 16 16 16 16 16 16 16
15 13 13 14 12 14 14 14 14 14 14 11 11 12 13 12 12 13 13 13 13 13 14 14 15 15 15 15 16 15 16 16 16 16 16 16 16 16 16 16 16 16 16 16
17 14 14 17 14 13 13 13 13 16 13 11 11 13 13 12 12 13 13 12 13 13 13 13 14 14 15 15 15 16 16 16 17 16 16 16 16 16 16 17 16 16 16 16
17 15 21 14 11 11 12 11 11 12 12 13 12 12 12 11 12 12 13 13 12 12 12 13 13 14 14 15 16 16 16 16 17 16 16 17 17 17 17 16 16 16 16 15
18 18 15 14 17 14 14 13 10 11 11 14 14 13 14 12 11 12 12 11 11 12 12 12 13 13 14 15 16 16 16 16 16 16 17 16 17 17 17 16 16 16 16 16
16 19 20 17 17 14 12 16 13 11 11 16 14 15 14 13 13 12 12 13 13 13 14 13 14 14 14 15 15 16 16 15 15 16 16 16 16 17 16 17 15 15 15 16
16 18 16 18 19 15 17 17 18 16 15 15 14 13 13 14 14 14 14 14 15 14 14 15 15 15 16 16 15 16 16 16 16 16 15 15 16 17 16 17 16 17 17 18
15 18 19 17 18 15 16 18 16 16 16 16 16 16 16 16 15 15 15 15 15 16 16 16 16 16 17 16 16 17 17 17 17 17 15 15 15 18 17 17 19 20 21 20
16 16 18 17 17 16 16 16 16 14 15 15 17 16 16 16 16 16 16 16 16 17 17 16 17 16 16 16 17 17 18 18 19 18 17 17 17 18 19 19 18 19 17 17
16 18 18 16 14 15 16 16 16 16 14 15 16 16 17 17 17 17 17 17 18 17 18 18 18 17 18 17 17 18 18 18 18 18 19 19 18 17 18 18 18 17 17 16
20 18 17 16 15 14 14 15 16 16 16 16 16 17 17 17 17 16 16 17 17 17 17 17 18 18 19 18 17 18 18 18 19 19 19 19 19 19 17 18 16 19 19 18
17 16 14 14 13 13 14 15 16 16 17 16 15 16 16 16 16 16 16 18 18 18 18 18 18 19 19 18 17 17 18 18 18 18 19 19 19 20 12 12 11 9 9 13
15 13 13 13 12 13 14 15 15 15 15 16 16 16 16 16 16 17 18 18 17 16 18 18 19 19 21 20 18 18 18 18 17 17 18 18 19 18 20 15 9 9 9 8
13 14 16 16 16 15 14 14 14 15 15 15 15 17 17 17 18 18 17 17 17 17 19 19 19 23 23 22 20 20 21 18 18 19 19 19 19 19 19 19 20 18 12 11
15 15 15 15 15 16 16 17 17 17 17 17 18 17 18 17 17 17 19 20 19 20 22 22 23 25 25 24 21 21 20 21 19 19 20 19 18 19 19 20 20 20 20 16
16 16 16 16 16 17 18 19 17 16 17 17 18 18 17 17 19 22 23 23 21 23 26 24 25 27 26 24 23 23 22 19 20 20 20 20 19 20 20 20 21 21 21 20
16 16 17 17 16 15 16 16 16 16 17 17 18 19 19 21 23 25 26 25 24 25 26 26 28 28 27 25 23 23 22 22 20 21 21 21 21 22 21 21 21 22 22 20
20 18 18 18 17 16 17 18 19 19 20 21 20 20 22 23 23 26 28 27 27 28 28 29 29 28 27 27 24 22 21 22 22 23 24 23 23 21 20 22 24 25 24 22
23 22 21 22 23 21 22 22 23 23 23 23 22 24 25 25 26 27 28 27 28 28 30 30 20 27 27 23 22 22 23 24 26 26 24 22 24 26 26 26 27 28 26 24
25 24 24 25 25 26 25 25 25 25 25 25 26 26 27 28 28 27 29 32 34 31 32 30 27 26 26 23 23 27 27 25 24 24 25 26 27 27 27 26 27 27 29 28
28 27 27 26 27 28 27 26 26 27 28 27 27 29 29 30 29 31 29 29 32 32 30 27 28 28 28 28 26 28 27 27 27 26 29 28 28 28 27 29 29 27 27 26
30 30 29 29 29 29 30 29 28 28 28 28 29 29 29 30 30 28 30 28 30 25 28 28 28 26 27 23 26 27 28 28 28 28 29 29 30 28 28 27 27 27 26 25
32 32 31 31 31 33 31 29 29 28 28 28 27 27 27 26 26 26 27 29 29 27 27 27 24 23 21 27 27 27 27 27 27 27 28 28 27 28 26 26 26 26 27 25
34 33 32 32 29 28 28 29 29 28 28 28 28 27 26 26 27 26 25 25 24 25 26 25 23 18 24 27 27 27 27 28 27 28 28 25 28 28 28 27 26 26 25 24
32 31 29 27 26 28 30 30 29 29 28 27 28 26 25 24 24 25 24 23 21 23 23 21 19 20 27 29 28 28 28 28 28 29 28 28 29 28 27 26 25 26 27 26
29 28 29 28 27 27 28 27 28 29 27 26 25 24 23 23 22 22 22 23 23 23 24 23 24 26 26 27 27 26 25 26 24 25 25 24 24 24 23 23 25 25 24 25
26 24 26 26 25 25 27 27 29 30 28 28 26 24 24 23 22 22 22 23 22 23 23 25 24 24 26 26 26 25 24 25 23 24 26 25 22 22 22 22 23 23 22 22

GFSNGP_con_lsi_039.txt.gz
Lid_Strength_Index
13 13 13 15 15 14 15 14 16 14 14 12 12 13 13 13 14 14 14 14 14 14 15 15 16 16 16 16 16 16 17 18 18 18 18 18 18 17 17 17 18 18 18 18
14 14 13 14 14 14 14 14 14 13 14 12 11 11 13 13 13 14 14 13 13 13 14 15 16 16 16 16 16 16 17 18 18 18 18 17 17 17 17 18 18 18 18 18
17 14 14 17 14 13 13 13 13 15 13 12 11 11 13 13 13 13 13 13 13 13 14 14 15 15 16 16 16 16 17 18 18 17 17 17 17 17 18 18 18 19 19 18
16 15 21 14 11 10 11 11 11 12 11 11 11 10 11 11 12 12 12 12 13 13 13 14 14 15 15 15 16 16 17 17 17 17 17 17 17 18 18 19 19 19 18 18
17 18 15 13 15 13 14 13 10 10 10 10 12 13 13 13 11 11 11 12 12 12 12 14 14 15 15 16 16 16 16 16 16 16 17 17 18 18 18 18 19 19 18 18
16 19 20 14 15 13 11 15 11 10 10 10 13 14 11 13 13 13 13 12 13 13 13 13 14 15 15 16 16 16 16 16 16 16 16 17 17 18 20 19 17 17 17 17
16 17 15 16 17 13 16 15 19 17 13 13 13 10 13 14 14 14 14 14 14 13 13 13 14 14 15 16 16 15 16 17 17 16 16 16 17 19 20 18 18 19 18 18
15 17 19 17 16 14 15 18 17 17 17 16 16 17 15 15 15 15 15 15 15 15 15 15 15 14 15 15 15 17 17 17 17 17 17 18 18 21 20 19 18 19 19 19
14 15 17 17 17 16 16 17 17 16 17 17 17 17 16 16 16 16 15 16 16 15 16 17 17 15 15 16 18 18 18 18 19 20 19 19 18 19 19 18 17 18 18 18
16 17 17 16 15 15 15 16 16 15 15 16 17 17 16 16 17 17 17 17 18 17 17 18 19 18 20 18 18 19 19 20 21 20 21 22 19 18 17 18 18 18 18 18
18 17 16 15 14 14 13 14 16 16 16 16 16 17 17 17 17 17 17 18 17 18 18 19 20 20 21 19 19 19 21 21 21 21 20 21 20 19 18 19 17 20 18 19
16 15 14 14 13 12 13 14 16 16 16 16 16 16 17 17 17 17 17 19 19 20 20 21 21 21 22 20 19 19 20 20 20 20 21 21 20 21 14 14 12 11 11 16
13 12 13 14 13 13 13 15 15 15 15 15 16 16 17 17 18 18 20 20 20 20 20 20 20 21 24 22 19 19 19 20 20 20 20 20 21 20 20 18 11 10 10 9
14 13 14 16 15 14 14 14 15 16 16 16 17 18 18 18 19 18 19 20 19 20 21 20 21 24 25 24 22 22 22 19 19 20 20 21 21 21 21 22 21 20 14 12
15 15 15 16 16 17 17 17 17 17 18 18 18 18 18 18 19 19 21 21 21 22 23 23 24 27 26 25 22 23 22 22 22 22 23 21 21 21 22 21 21 20 18 16
17 17 17 17 17 17 18 18 18 18 18 19 19 18 18 19 21 23 24 23 21 23 26 25 25 27 27 24 24 23 23 21 22 23 23 22 22 22 20 20 21 21 23 22
20 19 20 19 18 18 19 18 18 18 19 18 20 20 21 23 24 25 27 26 26 27 27 26 28 29 29 27 24 25 25 24 23 24 24 23 21 21 21 22 24 26 25 22
22 20 20 21 20 19 20 22 21 22 22 22 21 21 22 23 24 27 29 29 28 29 30 31 31 29 27 27 26 26 26 26 26 23 22 22 23 23 24 26 28 27 26 25
25 24 24 24 24 23 25 25 25 25 24 24 24 26 26 27 27 29 30 28 28 28 29 31 21 29 29 25 26 25 24 24 25 26 25 24 26 29 29 30 30 31 29 27
27 27 27 28 28 28 28 28 28 28 29 28 28 28 28 29 29 29 30 33 35 31 33 32 31 30 28 23 22 23 25 26 27 29 28 30 30 31 31 29 30 30 32 31
30 29 29 29 30 30 30 30 30 30 30 30 29 30 31 33 32 33 31 29 31 33 31 26 27 26 27 25 26 30 31 30 29 30 32 31 32 32 30 32 32 30 28 29
32 31 30 30 30 31 33 33 31 29 29 29 30 30 29 32 32 30 32 29 28 24 26 26 27 27 27 24 29 29 29 30 31 32 32 33 32 31 31 30 29 28 27 28
32 31 29 30 31 34 33 31 31 30 30 30 30 30 28 28 29 27 28 29 29 26 26 26 24 22 21 23 26 28 29 29 29 29 30 31 29 30 29 28 28 28 28 28
33 31 31 31 31 29 30 33 33 33 34 32 31 31 28 28 28 28 27 25 24 25 25 24 21 19 21 25 26 26 26 28 28 30 30 27 31 31 31 29 27 26 27 26
32 32 31 30 29 31 34 34 32 32 31 31 30 29 30 28 29 29 27 25 21 23 23 21 19 19 24 26 25 28 29 30 31 32 30 30 29 30 29 29 27 27 25 25
28 29 29 30 31 30 30 28 28 29 29 29 28 28 28 27 27 27 26 25 25 22 23 23 23 24 24 25 27 27 26 25 24 26 27 27 27 27 27 26 26 25 24 23
27 27 30 30 28 28 29 30 30 30 32 33 31 32 30 29 28 26 25 24 24 23 22 23 23 21 23 23 23 24 24 25 24 24 27 26 26 26 26 25 26 24 23 22

GFSNGP_con_lsi_042.txt.gz
Lid_Strength_Index
12 13 14 15 14 14 15 14 16 14 14 12 12 13 12 12 14 15 15 15 15 15 16 16 16 16 16 16 17 17 17 18 18 18 18 19 18 18 18 18 18 18 18 18
14 12 14 14 15 14 14 13 14 13 14 11 12 12 13 13 13 14 14 14 14 14 15 16 16 16 16 16 17 17 17 18 18 18 18 18 18 18 18 18 19 18 18 19
17 13 15 17 14 14 14 13 13 15 13 12 12 11 11 12 13 13 13 13 14 14 14 15 15 15 16 16 17 17 18 18 18 18 18 17 17 17 18 18 18 18 18 19
17 15 21 13 11 10 11 11 12 12 12 11 11 10 10 11 12 12 12 12 13 13 13 14 14 15 15 17 17 17 18 17 17 17 17 17 17 17 18 18 18 18 19 19
17 18 15 13 14 13 13 12 10 10 10 9 9 12 11 11 10 10 11 11 11 12 13 14 15 15 16 18 18 17 18 17 17 17 17 17 17 17 17 18 18 19 19 19
16 19 20 13 13 11 11 15 10 10 9 9 11 13 10 8 11 12 12 12 13 14 15 15 15 16 17 18 18 18 17 16 16 16 16 17 16 17 17 17 17 18 18 19
16 17 15 15 16 11 16 14 18 14 12 12 11 9 13 14 14 14 14 14 15 14 14 15 16 16 17 17 17 16 16 16 16 16 16 16 16 17 19 18 19 19 19 20
15 17 19 16 15 13 14 17 17 16 16 16 15 15 15 15 16 15 15 15 15 15 15 15 16 15 16 16 15 15 16 17 16 16 16 17 17 19 19 18 19 20 21 23
14 14 17 16 17 16 16 18 17 16 16 16 16 17 16 17 16 16 16 16 16 15 16 16 15 14 15 15 17 17 17 17 17 17 18 18 18 20 20 20 19 20 19 18
14 15 16 16 14 14 16 16 16 16 15 16 16 17 16 17 17 16 17 17 17 16 16 18 17 17 16 17 17 17 17 18 19 19 20 20 19 19 19 19 19 18 19 17
17 16 16 15 14 13 14 14 15 16 16 16 17 17 16 17 17 17 18 18 17 17 17 18 19 19 19 19 18 18 19 20 20 20 20 21 22 20 19 22 17 19 18 19
16 14 13 13 13 12 13 14 15 16 16 16 16 17 17 17 18 18 18 19 19 20 20 21 20 20 20 19 18 19 21 21 21 21 22 22 22 24 16 15 13 12 12 17
13 13 14 15 13 12 13 13 15 16 16 16 17 17 17 17 18 18 19 19 19 20 20 21 21 22 25 24 21 20 20 22 22 22 22 22 23 21 21 18 12 11 10 10
14 12 13 16 15 13 13 14 15 17 17 16 17 18 17 17 18 18 19 20 20 21 22 22 23 25 27 26 24 25 24 21 21 22 21 22 21 21 22 23 22 21 15 13
17 15 15 16 16 17 17 16 17 17 18 18 19 18 18 19 20 21 23 23 22 23 25 24 25 27 27 26 24 25 23 23 24 23 23 22 22 23 23 23 23 24 20 16
18 18 17 17 18 18 18 18 18 18 19 20 20 20 21 22 25 26 27 26 23 26 29 26 27 28 28 27 25 25 24 22 23 23 23 22 22 22 23 23 22 20 21 20
20 20 20 21 20 20 21 21 20 20 21 22 22 23 23 24 26 27 29 29 28 29 29 28 30 29 28 26 24 25 24 24 24 25 24 25 25 24 22 21 22 24 26 24
23 23 23 22 21 21 22 24 23 23 24 23 23 22 23 24 27 29 30 30 29 29 30 31 31 30 28 28 27 27 26 27 26 26 25 24 22 22 22 24 27 27 27 26
26 26 25 25 24 24 25 26 26 26 26 25 26 28 28 29 30 33 33 30 30 30 30 30 21 28 28 25 27 26 26 26 25 24 24 24 26 28 29 29 30 31 30 28
28 28 28 28 29 29 28 29 29 29 30 30 30 30 31 33 35 33 33 35 36 33 36 34 32 29 29 26 23 25 24 24 25 28 28 29 29 30 30 29 29 31 34 33
31 30 30 30 31 31 32 32 32 31 32 31 30 31 33 37 35 35 32 30 32 34 32 29 30 29 27 26 26 27 27 26 27 28 30 29 29 31 30 32 32 31 32 32
34 33 32 32 32 33 34 33 32 31 31 31 32 32 31 33 33 32 35 32 32 27 30 30 29 26 25 23 27 27 28 27 26 26 26 27 30 28 29 30 31 31 32 32
34 34 32 32 33 36 34 33 32 31 31 32 32 33 31 31 31 29 30 32 33 29 29 28 25 22 21 25 26 26 25 25 25 25 26 28 25 30 31 31 30 30 31 29
35 34 35 36 35 31 31 35 35 35 35 34 35 35 32 31 30 31 29 27 25 26 26 26 23 18 21 23 22 22 24 25 25 26 26 25 30 32 33 31 29 28 28 27
35 36 35 33 31 32 34 36 33 34 34 33 32 32 32 31 31 31 31 28 22 24 25 22 17 18 25 25 24 23 23 24 26 25 26 28 31 31 30 29 29 28 28 27
33 33 32 34 35 34 34 31 31 33 33 32 32 33 32 32 30 29 28 25 27 25 27 26 25 24 25 24 25 24 23 24 23 23 25 25 26 27 27 27 27 26 26 26
30 31 32 31 29 31 32 32 32 33 34 35 33 33 32 32 30 28 27 27 27 27 27 27 26 24 23 24 24 24 23 23 22 22 24 24 24 26 25 25 26 26 25 25

GFSNGP_con_lsi_045.txt.gz
Lid_Strength_Index
12 12 15 15 15 14 15 14 16 14 14 12 12 13 12 12 13 14 14 15 15 15 16 16 16 16 15 16 16 17 17 18 18 18 18 18 19 19 19 19 19 19 19 19
14 12 13 15 15 14 14 13 13 13 13 12 12 12 13 12 12 13 14 14 14 14 15 15 16 16 16 16 17 17 17 17 17 18 18 18 18 19 19 19 19 19 19 18
17 13 14 17 14 13 14 13 13 15 12 12 11 11 11 10 13 13 13 12 13 14 14 14 15 15 16 16 16 17 17 18 18 18 18 18 18 19 19 19 19 19 19 19
17 15 21 13 10 10 12 11 11 11 11 10 10 9 10 11 11 12 12 12 12 13 13 14 14 15 15 16 17 17 18 18 18 18 18 18 18 18 19 19 19 19 19 18
17 17 15 13 13 13 14 12 10 11 10 10 9 11 10 11 9 9 10 11 10 11 12 13 15 15 16 17 17 17 18 18 18 18 18 18 18 19 19 18 19 18 18 18
16 19 20 13 12 10 11 15 10 10 9 9 10 13 10 10 11 11 11 12 12 13 14 14 15 16 17 18 18 18 18 17 17 17 17 18 18 18 18 17 17 18 18 18
16 17 16 14 16 12 16 14 17 15 12 11 11 10 13 13 13 14 14 15 15 15 15 16 16 17 17 18 18 17 17 17 17 17 17 17 17 17 17 17 17 18 18 18
15 17 19 15 14 13 14 16 17 16 16 15 14 14 15 15 15 15 16 16 16 16 17 17 17 17 18 18 17 17 17 17 17 16 16 16 16 16 17 17 17 18 18 19
14 14 15 15 15 15 16 18 17 17 17 16 16 16 16 16 16 16 16 16 16 17 17 17 18 17 17 16 16 16 16 15 15 16 16 15 15 16 17 17 18 18 19 19
12 14 16 15 14 14 16 16 16 16 16 15 15 15 15 16 16 16 18 18 18 16 17 17 16 16 15 16 16 15 16 16 16 16 17 17 16 18 18 19 19 19 20 19
13 17 15 15 15 13 14 13 14 15 16 15 15 15 16 16 18 18 17 17 17 17 18 19 18 18 18 18 16 16 17 19 19 18 18 20 20 20 19 22 18 19 20 20
13 13 13 14 12 12 13 12 13 15 16 16 16 16 17 17 17 18 18 19 19 19 19 20 20 20 20 19 17 18 19 20 20 20 21 21 21 23 17 17 15 15 15 18
12 12 13 13 11 11 11 12 14 16 16 17 17 17 18 18 19 19 20 20 20 21 22 21 22 24 24 23 20 19 19 21 21 21 22 22 23 21 21 20 14 13 12 12
14 12 14 15 12 11 12 13 15 17 17 17 18 19 19 19 20 21 21 22 22 22 23 24 25 27 27 26 24 24 23 23 23 24 23 24 23 22 21 20 20 22 14 12
16 15 14 15 15 15 15 15 16 17 18 18 19 19 18 20 21 22 22 22 22 24 24 24 25 27 27 25 24 24 23 24 25 25 25 23 23 23 23 23 24 25 23 19
16 16 16 17 17 17 17 17 17 18 19 20 20 22 23 24 25 26 27 26 23 27 28 27 29 29 28 26 25 25 24 23 24 24 25 24 24 24 24 24 24 23 24 23
18 19 19 19 19 21 22 21 21 21 22 23 23 24 25 26 27 29 31 31 31 32 31 30 31 30 28 27 26 26 26 26 25 26 26 26 26 24 24 24 24 26 23 21
22 21 21 20 20 21 23 24 23 24 25 25 25 25 26 27 29 31 32 32 30 30 31 31 33 31 30 30 29 28 28 28 27 27 26 25 26 25 26 25 24 24 24 23
25 25 25 24 24 25 26 27 27 27 27 26 27 29 29 30 31 34 33 31 31 30 32 33 22 28 28 25 28 27 26 26 27 28 27 26 28 29 28 27 27 27 28 27
28 28 28 28 29 29 29 29 29 29 30 29 29 30 32 35 36 34 34 35 37 35 38 36 32 30 30 28 25 28 27 27 27 29 29 29 29 30 27 27 30 31 33 33
30 29 29 30 31 31 32 32 31 31 32 31 30 32 34 39 39 37 33 30 33 36 34 31 31 30 29 28 28 30 29 28 28 29 30 29 28 30 28 31 33 31 32 32
33 32 32 32 32 33 34 33 32 31 31 32 33 33 32 34 34 33 37 32 32 29 32 31 31 28 28 26 30 30 30 28 29 30 30 30 28 27 30 30 30 31 32 33
33 33 32 33 34 36 34 34 33 32 32 32 32 32 31 32 32 29 29 31 33 29 31 31 27 23 23 28 29 29 28 27 26 24 25 26 26 28 28 27 27 28 28 28
34 34 36 38 35 31 33 36 35 35 33 33 33 34 31 30 30 32 31 30 28 28 29 28 25 18 25 29 28 28 28 28 26 27 26 24 27 26 27 26 26 25 26 26
33 33 33 31 31 34 35 38 33 33 32 32 32 32 33 32 31 32 33 31 25 28 29 26 20 21 29 31 30 28 28 29 29 28 26 26 26 26 26 26 26 26 26 26
32 32 33 34 34 33 33 32 33 34 33 33 33 34 33 32 31 31 31 29 29 28 30 29 30 30 30 29 30 29 27 28 26 27 27 26 26 25 25 24 25 24 25 25
31 30 30 31 32 32 34 34 32 34 37 38 35 36 35 33 31 29 29 29 30 30 30 32 30 28 29 29 28 27 26 27 25 26 28 27 25 25 24 24 24 24 24 24